Date String (YYYY-MM-DD hh:mm:ss) UTC,Instrument flags,absolute air pressure of the measurement (hPa),sample flow rate (lpm),inlet stack bypass flow (lpm),air temperature of the measurement (°C),ambient temperature measured by the external sensor (°C),aerosol sample conditioner tube jacket temperature (°C),OPC LED temperature (°C),internal box temperature (°C),relative humidity of the measurement (%),span deviation,mass concentration of particles derived from Lorenz-Mie calculation of OPC scattering (μg/m³),mass concentration of particles derived from Lorenz-Mie calculation of OPC scattering (μg/m³),mass concentration of particles derived from Lorenz-Mie calculation of OPC scattering (μg/m³)
DateTimeUTC,F1_M11,P_M11,Q1_M11,Q2_M11,T1_M11,T2_M11,T3_M11,T4_M11,T5_M11,U1_M11,ZSPAN_M11,X2_M11,X0_M11,X1_M11
2024-05-03 00:00:00,SystemResetWarning,0824.7,5.01,000.00,024.9,022.9,000.0,033.8,026.4,014.3,0000.0,0004.51,0014.34,0002.93
2024-05-03 00:01:00,SystemResetWarning,0824.7,5.01,000.00,024.9,023.2,000.0,033.8,026.5,013.5,0000.0,0004.50,0016.17,0002.93
2024-05-03 00:02:00,SystemResetWarning,0824.7,5.00,000.00,025.0,023.5,000.0,033.7,026.6,013.8,0000.0,0004.59,0016.73,0002.91
2024-05-03 00:03:00,SystemResetWarning,0824.7,5.00,000.00,025.0,023.7,000.0,033.7,026.7,014.4,0000.0,0004.63,0016.28,0002.92
2024-05-03 00:04:00,SystemResetWarning,0824.7,4.98,000.00,025.1,023.9,000.0,033.6,026.8,014.6,0000.0,0004.61,0016.34,0002.92
2024-05-03 00:05:00,SystemResetWarning,0824.8,5.01,000.00,025.1,024.1,000.0,033.6,026.8,013.9,0000.0,0004.55,0016.48,0002.88
2024-05-03 00:06:00,SystemResetWarning,0824.7,5.02,000.00,025.1,024.2,000.0,033.6,026.9,013.8,0000.0,0004.61,0017.16,0002.89
2024-05-03 00:07:00,SystemResetWarning,0824.7,5.01,000.00,025.1,024.3,000.0,033.6,027.0,013.5,0000.0,0004.59,0016.16,0002.89
2024-05-03 00:08:00,SystemResetWarning,0824.8,4.99,000.00,025.2,024.4,000.0,033.6,027.0,013.9,0000.0,0004.52,0015.48,0002.87
2024-05-03 00:09:00,SystemResetWarning,0824.8,4.99,000.00,025.2,024.5,000.0,033.6,027.0,014.2,0000.0,0004.56,0015.53,0002.86
2024-05-03 00:10:00,SystemResetWarning,0824.8,5.00,000.00,025.2,024.6,000.0,033.6,027.1,014.2,0000.0,0004.60,0014.92,0002.86
2024-05-03 00:11:00,SystemResetWarning,0824.8,5.01,000.00,025.3,024.6,000.0,033.6,027.1,013.9,0000.0,0004.61,0014.01,0002.89
2024-05-03 00:12:00,SystemResetWarning,0824.8,5.01,000.00,025.3,024.7,000.0,033.6,027.1,013.6,0000.0,0004.62,0012.66,0002.90
2024-05-03 00:13:00,SystemResetWarning,0824.9,4.99,000.00,025.3,024.7,000.0,033.6,027.2,013.7,0000.0,0004.61,0012.17,0002.91
2024-05-03 00:14:00,SystemResetWarning,0824.9,4.99,000.00,025.4,024.8,000.0,033.6,027.2,014.0,0000.0,0004.54,0012.33,0002.91
2024-05-03 00:15:00,SystemResetWarning,0824.9,5.00,000.00,025.4,024.8,000.0,033.7,027.2,014.5,0000.0,0004.53,0012.62,0002.90
2024-05-03 00:16:00,SystemResetWarning,0824.9,5.01,000.00,025.4,024.9,000.0,033.7,027.3,013.9,0000.0,0004.53,0013.20,0002.91
2024-05-03 00:17:00,SystemResetWarning,0824.9,5.00,000.00,025.5,024.9,000.0,033.7,027.3,013.8,0000.0,0004.55,0013.24,0002.90
2024-05-03 00:18:00,SystemResetWarning,0824.9,4.98,000.00,025.5,024.9,000.0,033.7,027.3,014.2,0000.0,0004.50,0013.28,0002.91
2024-05-03 00:19:00,SystemResetWarning,0824.9,5.01,000.00,025.5,024.9,000.0,033.7,027.4,013.7,0000.0,0004.52,0013.14,0002.92
2024-05-03 00:20:00,SystemResetWarning,0824.9,5.01,000.00,025.6,025.0,000.0,033.8,027.4,013.8,0000.0,0004.51,0012.97,0002.92
2024-05-03 00:21:00,SystemResetWarning,0824.9,4.99,000.00,025.6,025.0,000.0,033.8,027.4,013.5,0000.0,0004.52,0013.10,0002.93
2024-05-03 00:22:00,SystemResetWarning,0824.9,4.99,000.00,025.6,025.0,000.0,033.8,027.4,013.7,0000.0,0004.50,0013.61,0002.92
2024-05-03 00:23:00,SystemResetWarning,0824.9,5.00,000.00,025.6,025.0,000.0,033.8,027.4,013.6,0000.0,0004.48,0013.79,0002.93
2024-05-03 00:24:00,SystemResetWarning,0824.9,5.00,000.00,025.6,025.1,000.0,033.8,027.5,014.0,0000.0,0004.44,0013.99,0002.93
2024-05-03 00:25:00,SystemResetWarning,0824.9,5.01,000.00,025.7,025.1,000.0,033.9,027.5,013.9,0000.0,0004.46,0014.47,0002.93
2024-05-03 00:26:00,SystemResetWarning,0824.9,5.00,000.00,025.7,025.1,000.0,033.9,027.5,013.9,0000.0,0004.49,0014.68,0002.92
2024-05-03 00:27:00,SystemResetWarning,0824.9,5.01,000.00,025.7,025.2,000.0,033.9,027.6,013.9,0000.0,0004.56,0013.96,0002.92
2024-05-03 00:28:00,SystemResetWarning,0824.9,5.00,000.00,025.7,025.2,000.0,033.9,027.5,014.0,0000.0,0004.51,0013.71,0002.92
2024-05-03 00:29:00,SystemResetWarning,0824.9,5.00,000.00,025.8,025.2,000.0,034.0,027.6,014.3,0000.0,0004.52,0013.52,0002.91
2024-05-03 00:30:00,SystemResetWarning,0824.9,4.99,000.00,025.8,025.2,000.0,034.0,027.6,014.5,0000.0,0004.55,0013.70,0002.90
2024-05-03 00:31:00,SystemResetWarning,0824.9,5.00,000.00,025.8,025.3,000.0,034.0,027.6,014.3,0000.0,0004.57,0013.80,0002.87
2024-05-03 00:32:00,SystemResetWarning,0824.9,5.00,000.00,025.8,025.3,000.0,034.0,027.7,014.1,0000.0,0004.49,0013.79,0002.84
2024-05-03 00:33:00,SystemResetWarning,0825.0,4.99,000.00,025.9,025.3,000.0,034.1,027.7,014.4,0000.0,0004.47,0013.22,0002.82
2024-05-03 00:34:00,SystemResetWarning,0824.9,5.00,000.00,025.9,025.4,000.0,034.1,027.7,014.6,0000.0,0004.44,0012.64,0002.79
2024-05-03 00:35:00,SystemResetWarning,0824.9,4.99,000.00,025.9,025.4,000.0,034.1,027.8,014.1,0000.0,0004.43,0012.22,0002.74
2024-05-03 00:36:00,SystemResetWarning,0824.9,5.00,000.00,025.9,025.4,000.0,034.1,027.8,014.3,0000.0,0004.40,0011.18,0002.72
2024-05-03 00:37:00,SystemResetWarning,0824.9,5.00,000.00,026.0,025.5,000.0,034.2,027.8,014.8,0000.0,0004.39,0010.89,0002.70
2024-05-03 00:38:00,SystemResetWarning,0824.9,5.01,000.00,026.0,025.1,000.0,034.2,027.5,014.2,0000.0,0004.35,0011.55,0002.68
2024-05-03 00:39:00,SystemResetWarning,0824.9,4.98,000.00,025.6,023.0,000.0,034.2,026.4,014.3,0000.0,0004.39,0011.67,0002.66
2024-05-03 00:40:00,SystemResetWarning,0824.9,5.02,000.00,025.3,022.4,000.0,034.2,026.0,015.0,0000.0,0004.39,0011.73,0002.63
2024-05-03 00:41:00,SystemResetWarning,0824.9,4.99,000.00,025.1,022.6,000.0,034.1,026.1,015.1,0000.0,0004.39,0011.92,0002.60
2024-05-03 00:42:00,SystemResetWarning,0824.9,4.99,000.00,025.1,022.9,000.0,033.9,026.3,015.0,0000.0,0004.41,0012.52,0002.59
2024-05-03 00:43:00,SystemResetWarning,0824.9,5.01,000.00,025.1,023.3,000.0,033.8,026.5,015.0,0000.0,0004.41,0013.71,0002.58
2024-05-03 00:44:00,SystemResetWarning,0824.9,5.01,000.00,025.1,023.6,000.0,033.8,026.7,015.2,0000.0,0004.39,0015.93,0002.56
2024-05-03 00:45:00,SystemResetWarning,0824.9,5.00,000.00,025.2,023.8,000.0,033.7,026.8,015.1,0000.0,0004.43,0016.20,0002.54
2024-05-03 00:46:00,SystemResetWarning,0824.9,4.99,000.00,025.2,024.1,000.0,033.7,026.9,015.1,0000.0,0004.47,0016.63,0002.55
2024-05-03 00:47:00,SystemResetWarning,0825.0,5.00,000.00,025.2,024.3,000.0,033.7,027.0,015.1,0000.0,0004.51,0017.43,0002.56
2024-05-03 00:48:00,SystemResetWarning,0824.9,4.99,000.00,025.3,024.4,000.0,033.7,027.1,015.0,0000.0,0004.52,0017.96,0002.55
2024-05-03 00:49:00,SystemResetWarning,0824.9,5.00,000.00,025.3,024.6,000.0,033.7,027.1,014.9,0000.0,0004.47,0018.70,0002.53
2024-05-03 00:50:00,SystemResetWarning,0824.9,5.01,000.00,025.3,024.7,000.0,033.7,027.2,014.5,0000.0,0004.42,0018.49,0002.53
2024-05-03 00:51:00,SystemResetWarning,0825.0,5.01,000.00,025.4,024.8,000.0,033.7,027.2,014.7,0000.0,0004.39,0018.76,0002.52
2024-05-03 00:52:00,SystemResetWarning,0825.0,5.00,000.00,025.4,024.8,000.0,033.7,027.3,014.7,0000.0,0004.35,0018.62,0002.51
2024-05-03 00:53:00,SystemResetWarning,0824.9,5.00,000.00,025.5,024.9,000.0,033.7,027.4,014.4,0000.0,0004.27,0018.75,0002.50
2024-05-03 00:54:00,SystemResetWarning,0825.0,4.99,000.00,025.5,025.0,000.0,033.8,027.4,014.3,0000.0,0004.33,0018.25,0002.50
2024-05-03 00:55:00,SystemResetWarning,0825.0,5.00,000.00,025.5,025.0,000.0,033.8,027.4,014.2,0000.0,0004.38,0016.68,0002.51
2024-05-03 00:56:00,SystemResetWarning,0825.0,5.01,000.00,025.6,025.1,000.0,033.8,027.4,014.2,0000.0,0004.32,0016.27,0002.51
2024-05-03 00:57:00,SystemResetWarning,0825.0,5.00,000.00,025.6,025.1,000.0,033.8,027.5,014.1,0000.0,0004.37,0016.37,0002.51
2024-05-03 00:58:00,SystemResetWarning,0825.0,4.99,000.00,025.6,025.2,000.0,033.9,027.5,014.0,0000.0,0004.34,0015.60,0002.50
2024-05-03 00:59:00,SystemResetWarning,0825.0,5.00,000.00,025.7,025.2,000.0,033.9,027.6,013.9,0000.0,0004.32,0015.38,0002.49
